Tracking 19792 objects as of 15-Jul-2019
HD Live streaming from Space Station
objects crossing your sky now

COSMOS 1275 DEB

Track COSMOS 1275 DEB now!
10-day predictions


NORAD ID: 13483
Int'l Code: 1981-053GF
Perigee: 852.4 km
Apogee: 869.7 km
Inclination: 82.9 °
Period: 102.0 minutes
Semi major axis: 7232 km
RCS: 0.0105 m2 (small)
Launch date: June 4, 1981
Source: Commonwealth of Independent States (former USSR) (CIS)
Launch site: PLESETSK MISSILE AND SPACE COMPLEX (PKMTR)

Note: This is SATELLITE DEBRIS
aabbcc
Your satellite tracking list
Your tracking list is empty




NASA's NSSDC Master Catalog

Two Line Element Set (TLE):
1 13483U 81053GD  19195.80772446 +.00000621 +00000-0 +33266-3 0  9991
2 13483 082.9274 294.6969 0011914 085.7013 035.6221 14.11592924889651
Source of the keplerian elements: AFSPC